Regional Weather Roundup
Issued by NWS Green Bay, WI

Home | Current Version | Previous Version | Text Only | Print | Product List | Glossary On
Versions: 1 2 3 4 5 6 7 8 9 10 11 12 13 14 15 16 17 18 19 20 21 22 23 24 25 26 27 28 29 30 31 32 33 34 35 36 37 38 39 40 41 42 43 44 45 46 47 48 49 50
000
ASUS43 KGRB 301100
RWRGRB

NORTH-CENTRAL AND NORTHEAST WISCONSIN REGIONAL WEATHER ROUNDUP
NATIONAL WEATHER SERVICE GREEN BAY WI
600 AM CDT SUN AUG 30 2015

WIZ005-009-010>012-018-019-301200-
NORTH CENTRAL WISCONSIN

CITY           SKY/WX    TMP DP  RH WIND       PRES   REMARKS
IRONWOOD       CLOUDY    63  61  94 S6        29.97S
MANITOWISH WTR NOT AVBL
ARBOR VITAE    NOT AVBL
EAGLE RIVER    NOT AVBL
LAND O LAKES   NOT AVBL
RHINELANDER    FOG       58  57  97 W3        30.06F VSB 3/4
PHILLIPS       CLOUDY    56  56 100 CALM      30.04S FOG
ANTIGO         NOT AVBL
TOMAHAWK       NOT AVBL
MERRILL        NOT AVBL
$$

WIZ013-073-301200-
NORTHEAST WISCONSIN

CITY           SKY/WX    TMP DP  RH WIND       PRES   REMARKS
IRON MOUNTAIN  CLOUDY    59  58  96 W5        30.03S FOG
MARINETTE      CLEAR     55  52  88 CALM      30.04S
$$

WIZ017-030-035>037-045-301200-
CENTRAL WISCONSIN

CITY           SKY/WX    TMP DP  RH WIND       PRES   REMARKS
MEDFORD        NOT AVBL
WAUSAU         FOG       52  51  97 CALM      30.05R VSB 1/2
MOSINEE        FOG       50  50 100 CALM      30.06S VSB 1/4
MARSHFIELD     FOG       54  51  90 CALM      30.06R VSB 1/4
WISC RAPIDS    FOG       54  52  93 CALM      30.07S VSB 1/4
STEVENS POINT  NOT AVBL
WAUPACA        NOT AVBL
SHAWANO        NOT AVBL
CLINTONVILLE   FOG       50  50 100 CALM      30.05F VSB 1/4
WAUTOMA        NOT AVBL
$$

WIZ038-039-048-051-301200-
FOX VALLEY

CITY           SKY/WX    TMP DP  RH WIND       PRES   REMARKS
NWS GREEN BAY  FOG       57  56  96 CALM      30.06R VSB 1/4
APPLETON       MOCLDY    57  57 100 VRB5      30.04S FOG
OSHKOSH        FOG       56  55  97 CALM      30.06R VSB 3/4
FOND DU LAC    FOG       61  59  93 CALM      30.07R VSB 1/4
$$

WIZ022-050-052-301200-
EAST CENTRAL WISCONSIN

CITY           SKY/WX    TMP DP  RH WIND       PRES   REMARKS
EPHRAIM        NOT AVBL
STURGEON BAY   CLOUDY    59  55  88 CALM      30.08R VSB<1/4
MANITOWOC      FOG       54  52  94 MISG      30.06S VSB 1/2
SHEBOYGAN      FOG       53  53 100 CALM      30.06R VSB 1/2
$$

LMZ563-521-522-541>543-301200-
LAKESHORE

STATION/POSITION TIME  TEMP    WIND        PRES    VSBY  WAVE
                       AIR SEA DIR/SP/G                  HT/PER
                 (UTC) (F)     (DEG/KT/KT) (MB)    (MI)  (FT/S)
SHEBOYGAN LKSHOR 1000   54      10/  2/  2 1017.8R
ALGOMA MARINA    1044             CALM       N/A
NORTHPORT PIER   1003   60     250/  2/  6 1016.9S
N MID LAKE BUOY  0950   63 64  240/  6/  6 1017.0R         0
S GREEN BAY BUOY 1000   61 62  240/  6/  8 1018.7S
SISTER BAY LKSHO 1004   61        CALM       N/A
CHAMBERS ISLAND  1000   59     200/  1/  4 1017.3S
$$


USA.gov is the U.S. government's official web portal to all federal, state and local government web resources and services.